Location: Großmugl Leeberg
(48.4883°N, 16.2231°E)
Time: 08:51:52
(UTC+01:00)

ISS - Visible Passes

Search period start: 10 December 2025 00:00
Search period end: 20 December 2025 00:00
Orbit: 416 x 420 km, 51.6° (Epoch: 09 December)

Date Brightness Start Highest point End Pass type
(mag) Time Alt. Az. Time Alt. Az. Time Alt. Az.
12 Dec -0.6 06:27:15 10° S 06:29:26 16° SE 06:31:37 10° E visible
13 Dec -0.2 05:41:09 10° SE 05:41:42 10° SE 05:42:17 10° ESE visible
14 Dec -2.1 06:26:52 10° SSW 06:29:58 35° SE 06:33:05 10° ENE visible
15 Dec -1.4 05:39:20 10° SSW 05:42:06 24° SE 05:44:52 10° E visible
16 Dec -1.0 04:53:44 15° SSE 04:54:15 16° SE 04:56:22 10° E visible
16 Dec -3.6 06:27:12 10° WSW 06:30:34 74° SSE 06:33:56 10° ENE visible
17 Dec -3.0 05:41:17 31° SSW 05:42:33 51° SSE 05:45:51 10° ENE visible
18 Dec -1.6 04:55:37 27° ESE 04:55:37 27° ESE 04:57:39 10° E visible
18 Dec -3.7 06:28:34 15° W 06:31:13 65° NNW 06:34:35 10° ENE visible
19 Dec -3.9 05:42:43 69° W 05:43:04 84° NNW 05:46:27 10° ENE visible
